Weather History for Tallahassee, FL

Change the Weather History Date:

Thursday, August 14, 2014

  Actual Average Record
Temperature  
Mean Temperature 84 °F 82 °F  
Max Temperature 95 °F 92 °F 99 °F (2007)
Min Temperature 73 °F 72 °F 65 °F (1964)
Degree Days  
Heating Degree Days 0    
Month to date heating degree days 0  
Since 1 June heating degree days 0  
Since 1 July heating degree days 0  
Cooling Degree Days 19    
Month to date cooling degree days 275  
Year to date cooling degree days 1830  
Since 1 June cooling degree days 1341  
Growing Degree Days 34 (Base 50)    
Moisture  
Dew Point 72 °F    
Average Humidity 71    
Maximum Humidity 94    
Minimum Humidity 47    
Precipitation  
Precipitation 0.00 in 0.25 in 2.88 in (2006)
Month to date precipitation 0.64 3.65  
Year to date precipitation 39.46 40.21  
Sea Level Pressure  
Sea Level Pressure 29.97 in    
Wind  
Wind Speed 2 mph (SSE)    
Max Wind Speed 14 mph    
Max Gust Speed 17 mph    
Visibility 8 miles    
Events Fog    
T = Trace of Precipitation, MM = Missing Value Source: NWS Daily Summary

Daily Weather History Graph

Daily Weather History Graph

Search for Another Location

Airport:

Trip Planner

Search our weather history database for the weather conditions in past years. The results will help you decide how hot, cold, wet, or windy it might be!

Date:

Astronomy

Aug. 14, 2014 Rise Set
Actual Time 7:03 AM EDT 8:20 PM EDT
Civil Twilight 6:38 AM EDT 8:45 PM EDT
Nautical Twilight 6:08 AM EDT 9:15 PM EDT
Astronomical Twilight 5:36 AM EDT 9:46 PM EDT
Moon 11:07 PM EDT (8/14) 11:16 AM EDT (8/14)
Length of Visible Light 14h 06m
Length of Day
13h 16m
Waning Gibbous, 79% of the Moon is Illuminated
Aug 14
Waning Gibbous
Aug 17
Last Quarter
Aug 25
New
Sep 2
First Quarter
Sep 8
Full

Hourly Weather History & Observations

Time (EDT) Temp. Heat Index Dew Point Humidity Pressure Visibility Wind Dir Wind Speed Gust Speed Precip Events Conditions
12:53 AM 78.1 °F - 73.9 °F 87% 29.97 in 10.0 mi Calm Calm - N/A   Clear
1:53 AM 78.1 °F - 73.9 °F 87% 29.97 in 10.0 mi Calm Calm - N/A   Mostly Cloudy
2:53 AM 75.9 °F - 73.9 °F 94% 29.96 in 6.0 mi Calm Calm - N/A   Clear
3:53 AM 75.9 °F - 73.0 °F 91% 29.96 in 5.0 mi Calm Calm - N/A   Clear
4:53 AM 75.9 °F - 73.0 °F 91% 29.96 in 6.0 mi Calm Calm - N/A   Clear
5:53 AM 75.0 °F - 72.0 °F 90% 29.96 in 3.0 mi Calm Calm - N/A   Clear
6:46 AM 73.4 °F - 71.6 °F 94% 29.98 in 1.8 mi Calm Calm - N/A   Partly Cloudy
6:53 AM 73.9 °F - 72.0 °F 93% 29.98 in 0.5 mi Calm Calm - N/A Fog Fog
7:06 AM 73.4 °F - 71.6 °F 94% 29.98 in 2.0 mi Calm Calm - N/A   Mostly Cloudy
7:14 AM 73.4 °F - 71.6 °F 94% 29.98 in 4.0 mi Calm Calm - N/A   Scattered Clouds
7:53 AM 75.0 °F - 72.0 °F 90% 29.99 in 6.0 mi Calm Calm - N/A   Scattered Clouds
8:53 AM 79.0 °F - 71.1 °F 77% 30.01 in 10.0 mi Calm Calm - N/A   Scattered Clouds
9:53 AM 84.0 °F 88.4 °F 70.0 °F 63% 30.01 in 10.0 mi Calm Calm - N/A   Scattered Clouds
10:53 AM 87.1 °F 91.3 °F 69.1 °F 55% 30.02 in 10.0 mi ESE 3.5 mph - N/A   Scattered Clouds
11:53 AM 91.0 °F 95.2 °F 68.0 °F 47% 30.02 in 10.0 mi Calm Calm - N/A   Scattered Clouds
1:53 PM 91.9 °F 96.9 °F 69.1 °F 47% 29.98 in 10.0 mi ESE 4.6 mph - N/A   Mostly Cloudy
2:53 PM 91.9 °F 95.9 °F 68.0 °F 45% 29.96 in 10.0 mi NNE 5.8 mph - N/A   Mostly Cloudy
3:53 PM 91.0 °F 97.6 °F 71.1 °F 52% 29.94 in 10.0 mi SE 9.2 mph - N/A   Mostly Cloudy
4:53 PM 86.0 °F 93.8 °F 73.9 °F 67% 29.95 in 10.0 mi South 10.4 mph - N/A   Mostly Cloudy
5:53 PM 88.0 °F 96.5 °F 73.9 °F 63% 29.95 in 10.0 mi SSW 6.9 mph 16.1 mph N/A   Mostly Cloudy
6:53 PM 84.9 °F 90.7 °F 72.0 °F 65% 29.94 in 10.0 mi SSW 3.5 mph - N/A   Mostly Cloudy
7:53 PM 84.0 °F 90.2 °F 73.0 °F 69% 29.95 in 10.0 mi Calm Calm - N/A   Mostly Cloudy
8:53 PM 82.9 °F 89.4 °F 73.9 °F 74% 29.97 in 10.0 mi Calm Calm - N/A   Mostly Cloudy
9:53 PM 82.0 °F 87.9 °F 73.9 °F 76% 29.97 in 10.0 mi Calm Calm - N/A   Mostly Cloudy
10:53 PM 80.1 °F 85.1 °F 75.0 °F 85% 29.99 in 10.0 mi Calm Calm - N/A   Mostly Cloudy
11:53 PM 78.1 °F - 73.9 °F 87% 29.98 in 8.0 mi Calm Calm - N/A   Mostly Cloudy